Hourly Weather Pabna

Today, 7 July, Tuesday

Time Temperature Precipitation Wind Pressure Humidity
00:00 +29°C° 0 mm 4 mps 748 mmHg 88%
01:00 +29°C° 0.5 mm 4 mps 748 mmHg 88%
02:00 +29°C° 0.5 mm 5 mps 748 mmHg 89%
03:00 +29°C° 0.5 mm 5 mps 748 mmHg 89%
04:00 +29°C° 0.5 mm 5 mps 748 mmHg 89%
05:00 +29°C° 0.5 mm 5 mps 748 mmHg 89%
06:00 +29°C° 0 mm 4 mps 749 mmHg 91%
07:00 +30°C° 0.1 mm 5 mps 749 mmHg 86%
08:00 +33°C° 0.1 mm 5 mps 749 mmHg 81%
09:00 +34°C° 0.1 mm 6 mps 750 mmHg 75%
10:00 +35°C° 1.2 mm 6 mps 750 mmHg 72%
11:00 +36°C° 1.2 mm 5 mps 749 mmHg 69%
12:00 +37°C° 0 mm 4 mps 750 mmHg 64%
13:00 +37°C° 1.1 mm 4 mps 749 mmHg 64%
14:00 +37°C° 1.1 mm 4 mps 748 mmHg 64%
15:00 +37°C° 1.1 mm 4 mps 748 mmHg 64%
16:00 +36°C° 2.2 mm 4 mps 747 mmHg 69%
17:00 +35°C° 2.2 mm 3 mps 747 mmHg 73%
18:00 +34°C° 0 mm 2 mps 748 mmHg 76%
19:00 +32°C° 0.2 mm 2 mps 749 mmHg 78%
20:00 +31°C° 0.2 mm 3 mps 749 mmHg 81%
21:00 +31°C° 0.2 mm 3 mps 750 mmHg 83%
22:00 +30°C° 0.1 mm 3 mps 750 mmHg 85%
23:00 +30°C° 0.1 mm 3 mps 750 mmHg 87%

Tomorrow, 8 July, Wednesday

Time Temperature Precipitation Wind Pressure Humidity
00:00 +30°C° 0.1 mm 3 mps 751 mmHg 89%
01:00 +30°C° 0.4 mm 3 mps 750 mmHg 89%
02:00 +29°C° 0.4 mm 3 mps 750 mmHg 90%
03:00 +29°C° 0.4 mm 3 mps 749 mmHg 91%
04:00 +29°C° 0.1 mm 3 mps 750 mmHg 91%
05:00 +29°C° 0.1 mm 3 mps 750 mmHg 91%
06:00 +29°C° 0.1 mm 3 mps 750 mmHg 91%
07:00 +30°C° 0.1 mm 3 mps 750 mmHg 85%
08:00 +33°C° 0.1 mm 3 mps 750 mmHg 78%
09:00 +34°C° 0.1 mm 3 mps 750 mmHg 72%
10:00 +35°C° 0.6 mm 3 mps 750 mmHg 68%
11:00 +36°C° 0.6 mm 4 mps 750 mmHg 64%
12:00 +37°C° 0.6 mm 4 mps 749 mmHg 60%
13:00 +37°C° 0.6 mm 4 mps 749 mmHg 60%
14:00 +37°C° 0.6 mm 4 mps 748 mmHg 60%
15:00 +37°C° 0.6 mm 4 mps 747 mmHg 60%
16:00 +36°C° 1.3 mm 4 mps 747 mmHg 65%
17:00 +35°C° 1.3 mm 3 mps 747 mmHg 69%
18:00 +35°C° 1.3 mm 3 mps 747 mmHg 73%
19:00 +34°C° 1.1 mm 3 mps 747 mmHg 76%
20:00 +33°C° 1.1 mm 4 mps 748 mmHg 78%
21:00 +32°C° 1.1 mm 4 mps 748 mmHg 81%
22:00 +32°C° 0.5 mm 4 mps 748 mmHg 82%
23:00 +30°C° 0.5 mm 5 mps 748 mmHg 84%

Day after tomorrow, 9 July, Thursday

Time Temperature Precipitation Wind Pressure Humidity
00:00 +30°C° 0.5 mm 5 mps 748 mmHg 85%
01:00 +30°C° 0.4 mm 4 mps 748 mmHg 86%
02:00 +30°C° 0.4 mm 4 mps 748 mmHg 87%
03:00 +30°C° 0.4 mm 4 mps 747 mmHg 88%
04:00 +30°C° 0.4 mm 4 mps 747 mmHg 88%
05:00 +30°C° 0.4 mm 4 mps 747 mmHg 87%
06:00 +30°C° 0.4 mm 4 mps 747 mmHg 87%
07:00 +32°C° 1.4 mm 5 mps 747 mmHg 83%
08:00 +33°C° 1.4 mm 5 mps 748 mmHg 80%
09:00 +34°C° 1.4 mm 6 mps 748 mmHg 77%
10:00 +34°C° 3.5 mm 5 mps 747 mmHg 76%
11:00 +34°C° 3.5 mm 5 mps 747 mmHg 75%
12:00 +35°C° 3.5 mm 4 mps 747 mmHg 74%
13:00 +34°C° 2.4 mm 3 mps 746 mmHg 77%
14:00 +32°C° 2.4 mm 2 mps 746 mmHg 81%
15:00 +30°C° 2.4 mm 0 mps 745 mmHg 84%
16:00 +31°C° 3.3 mm 2 mps 745 mmHg 87%
17:00 +30°C° 3.3 mm 4 mps 745 mmHg 90%
18:00 +29°C° 3.3 mm 5 mps 745 mmHg 92%
19:00 +29°C° 2.9 mm 6 mps 746 mmHg 91%
20:00 +29°C° 2.9 mm 6 mps 746 mmHg 90%
21:00 +29°C° 2.9 mm 7 mps 747 mmHg 89%
22:00 +29°C° 0.4 mm 6 mps 747 mmHg 90%
23:00 +29°C° 0.4 mm 6 mps 747 mmHg 90%

10 July, Friday

Time Temperature Precipitation Wind Pressure Humidity
00:00 +29°C° 0.4 mm 5 mps 747 mmHg 91%
01:00 +29°C° 1.1 mm 5 mps 746 mmHg 89%
02:00 +29°C° 1.1 mm 5 mps 746 mmHg 88%
03:00 +30°C° 1.1 mm 5 mps 745 mmHg 86%
04:00 +30°C° 1.3 mm 5 mps 746 mmHg 86%
05:00 +30°C° 1.3 mm 5 mps 746 mmHg 86%
06:00 +30°C° 1.3 mm 5 mps 746 mmHg 86%
07:00 +30°C° 1 mm 5 mps 746 mmHg 85%
08:00 +30°C° 1 mm 5 mps 747 mmHg 84%
09:00 +30°C° 1 mm 5 mps 747 mmHg 83%
10:00 +30°C° 1.2 mm 5 mps 747 mmHg 84%
11:00 +30°C° 1.2 mm 5 mps 747 mmHg 84%
12:00 +30°C° 1.2 mm 5 mps 747 mmHg 84%
13:00 +32°C° 0 mm 5 mps 747 mmHg 82%
14:00 +33°C° 0 mm 5 mps 746 mmHg 80%
15:00 +33°C° 0 mm 5 mps 745 mmHg 78%
16:00 +33°C° 0.8 mm 5 mps 745 mmHg 79%
17:00 +33°C° 0.8 mm 5 mps 745 mmHg 80%
18:00 +32°C° 0.8 mm 6 mps 745 mmHg 82%
19:00 +32°C° 0.9 mm 6 mps 745 mmHg 84%
20:00 +30°C° 0.9 mm 7 mps 746 mmHg 85%
21:00 +30°C° 0.9 mm 7 mps 746 mmHg 87%
22:00 +30°C° 1.2 mm 7 mps 746 mmHg 87%
23:00 +30°C° 1.2 mm 6 mps 746 mmHg 88%

11 July, Saturday

Time Temperature Precipitation Wind Pressure Humidity
00:00 +29°C° 1.2 mm 6 mps 746 mmHg 89%
01:00 +29°C° 3.2 mm 6 mps 746 mmHg 88%
02:00 +30°C° 3.2 mm 7 mps 745 mmHg 87%
03:00 +30°C° 3.2 mm 7 mps 745 mmHg 86%
04:00 +29°C° 2.2 mm 7 mps 745 mmHg 87%
05:00 +29°C° 2.2 mm 6 mps 745 mmHg 87%
06:00 +29°C° 2.2 mm 6 mps 746 mmHg 87%
07:00 +30°C° 1.2 mm 6 mps 746 mmHg 86%
08:00 +30°C° 1.2 mm 7 mps 746 mmHg 84%
09:00 +32°C° 1.2 mm 7 mps 747 mmHg 83%
10:00 +32°C° 1.4 mm 6 mps 747 mmHg 81%
11:00 +33°C° 1.4 mm 6 mps 747 mmHg 80%
12:00 +33°C° 1.4 mm 5 mps 746 mmHg 78%
13:00 +33°C° 1.8 mm 5 mps 746 mmHg 78%
14:00 +34°C° 1.8 mm 5 mps 746 mmHg 77%
15:00 +34°C° 1.8 mm 5 mps 745 mmHg 76%
16:00 +33°C° 2.5 mm 4 mps 745 mmHg 79%
17:00 +31°C° 2.5 mm 3 mps 746 mmHg 83%
18:00 +31°C° 2.5 mm 2 mps 746 mmHg 86%
19:00 +30°C° 0.9 mm 2 mps 746 mmHg 86%
20:00 +30°C° 0.9 mm 2 mps 747 mmHg 86%
21:00 +30°C° 0.9 mm 2 mps 748 mmHg 86%
22:00 +29°C° 0.4 mm 3 mps 748 mmHg 88%
23:00 +29°C° 0.4 mm 3 mps 748 mmHg 90%

12 July, Sunday

Time Temperature Precipitation Wind Pressure Humidity
00:00 +29°C° 0.4 mm 4 mps 748 mmHg 92%
01:00 +28°C° 0.4 mm 3 mps 747 mmHg 92%
02:00 +28°C° 0.4 mm 3 mps 747 mmHg 92%
03:00 +28°C° 0.4 mm 3 mps 747 mmHg 92%
04:00 +28°C° 0.5 mm 3 mps 747 mmHg 92%
05:00 +28°C° 0.5 mm 2 mps 747 mmHg 91%
06:00 +28°C° 0.5 mm 2 mps 748 mmHg 91%
07:00 +30°C° 1 mm 3 mps 748 mmHg 86%
08:00 +32°C° 1 mm 4 mps 748 mmHg 82%
09:00 +33°C° 1 mm 4 mps 749 mmHg 77%
10:00 +33°C° 1.7 mm 4 mps 749 mmHg 78%
11:00 +33°C° 1.7 mm 5 mps 748 mmHg 78%
12:00 +33°C° 1.7 mm 5 mps 748 mmHg 79%
13:00 +33°C° 1.4 mm 5 mps 748 mmHg 81%
14:00 +32°C° 1.4 mm 4 mps 748 mmHg 83%
15:00 +32°C° 1.4 mm 4 mps 747 mmHg 84%
16:00 +32°C° 1.6 mm 4 mps 747 mmHg 85%
17:00 +30°C° 1.6 mm 3 mps 747 mmHg 86%
18:00 +30°C° 1.6 mm 3 mps 747 mmHg 87%
19:00 +30°C° 0.6 mm 3 mps 748 mmHg 88%
20:00 +29°C° 0.6 mm 3 mps 748 mmHg 90%
21:00 +29°C° 0.6 mm 3 mps 749 mmHg 91%
22:00 +29°C° 0.1 mm 3 mps 749 mmHg 91%
23:00 +29°C° 0.1 mm 3 mps 749 mmHg 92%
Show more